Flag for Germany Weather past 2 weeks in Germering, Bavaria, Germany

Now
55 °F

Cool.


Feels Like: 55 °F
Forecast: 46 / 55 °F
Wind: 3 mph from Southwest

Location: Landsberg

Current Time: Sep 21, 2014 at 3:06:20 AM

Latest Report: Sep 21, 2014 at 2:20 AM


Visibility: 3 mi

Pressure: 30.04 "Hg

Humidity: 100%

Dew point: 55 °F

Location of GermeringLocation

Historic Weather in Germering — Graph

°F

Germering temperature yesterday

Maximum temperature yesterday: 68 °F (at 2:20 PM)
Minimum temperature yesterday: 57 °F (at 11:20 PM)
Average temperature yesterday: 61 °F

Past Weeks' High & Low Weather Summary

 TemperatureHumidityPressure
High77 °F (Sep 8, 4:20 PM)100% (Sep 11, 7:20 AM)30.15 "Hg (Sep 11, 7:20 AM)
Low48 °F (Sep 11, 7:20 AM)44% (Sep 6, 3:20 PM)29.92 "Hg (Sep 6, 3:20 PM)
Average59 °F85%30.02 "Hg
* Reported Sep 6 1:20 AM — Sep 21 1:20 AM, Germering, Weather by CustomWeather, © 2014

Note: Actual official high and low records may vary slightly from our data, if they occured in-between our weather recording intervals... More about our weather records

Advertising

Germering weather history for previous 24 hours

 ConditionsComfort  
Time TempWeatherWind HumidityBarometerVisibility
1:20 AM
Sep 21
57 °FCool.5 mph94%30.07 "Hg3 mi
12:20 AM57 °FCool.6 mph94%30.07 "Hg3 mi
11:20 PM
Sep 20
57 °FCool.3 mph94%30.07 "Hg3 mi
10:20 PM59 °FCool.2 mph94%30.07 "Hg3 mi
9:20 PM61 °FCool.5 mph88%30.07 "Hg3 mi
8:20 PM63 °FMild.6 mph83%30.04 "Hg3 mi
7:20 PM63 °FMild.2 mph83%30.01 "Hg3 mi
3:20 PM66 °FMild.9 mph73%30.04 "Hg3 mi
2:20 PM68 °FMild.10 mph73%30.04 "Hg3 mi
1:20 PM66 °FMild.7 mph78%30.04 "Hg3 mi
12:20 PM63 °FMild.6 mph94%30.07 "Hg2 mi
11:20 AM61 °FCool.6 mph88%30.07 "Hg3 mi
10:20 AM59 °FCool.6 mph94%30.04 "Hg2 mi
9:20 AM59 °FCool.8 mph94%30.04 "Hg2 mi
8:20 AM59 °FCool.3 mph94%30.01 "Hg3 mi
7:20 AM59 °FCool.3 mph94%30.04 "Hg3 mi
6:20 AM59 °FPassing clouds.1 mph94%30.01 "HgN/A
5:20 AM59 °FPassing clouds.3 mph94%30.04 "HgN/A
4:20 AM59 °FLight rain. Mostly cloudy.5 mph94%30.04 "HgN/A
3:20 AM59 °FPassing clouds.5 mph94%30.04 "HgN/A
Weather by CustomWeather, © 2014

See weather overviewHow to use our weather pages